Leesburg, FL

3:59 AM EDT on March 28, 2017 (GMT -0400)
Leesburg Regional

Weather History for KLEE - November, 2014

Change the Weather History Date:

Thursday, November 20, 2014

  Actual Average Record
Temperature  
Mean Temperature 50 °F -  
Max Temperature 64 °F 77 °F 85 °F (1964)
Min Temperature 37 °F 55 °F 34 °F (1968)
Degree Days  
Heating Degree Days 14    
Moisture  
Dew Point 34 °F    
Average Humidity 59    
Maximum Humidity 83    
Minimum Humidity 26    
Precipitation  
Precipitation 0.00 in - - ()
Sea Level Pressure  
Sea Level Pressure 30.27 in    
Wind  
Wind Speed 6 mph (NNE)    
Max Wind Speed 12 mph    
Max Gust Speed -    
Visibility 10 miles    
Events      
Averages and records for this station are not official NWS values.
T = Trace of Precipitation, MM = Missing Value Source: NWS Daily Summary

Daily Weather History Graph

Daily Weather History Graph

Search for Another Location

Airport or City:

Trip Planner

Search our weather history database for the weather conditions in past years. The results will help you decide how hot, cold, wet, or windy it might be!

Date:

Astronomy

Nov. 20, 2014 Rise Set
Actual Time 6:54 AM EST 5:31 PM EST
Civil Twilight 6:29 AM EST 5:56 PM EST
Nautical Twilight 6:00 AM EST 6:25 PM EST
Astronomical Twilight 5:31 AM EST 6:53 PM EST
Moon 4:58 AM EST (11/20) 4:26 PM EST (11/20)
Length of Visible Light 11h 27m
Length of Day
10h 37m
Waning Crescent, 4% of the Moon is Illuminated
Nov 20
Waning Crescent
Nov 22
New
Nov 29
First Quarter
Dec 6
Full
Dec 14
Last Quarter

Hourly Weather History & Observations

Time (EST) Temp. Windchill Dew Point Humidity Pressure Visibility Wind Dir Wind Speed Gust Speed Precip Events Conditions
12:53 AM 43.0 °F 39.5 °F 36.0 °F 76% 30.31 in 10.0 mi North 5.8 mph - N/A   Clear
1:53 AM 42.1 °F 37.7 °F 35.1 °F 76% 30.30 in 10.0 mi North 6.9 mph - N/A   Clear
2:53 AM 39.0 °F 34.8 °F 34.0 °F 82% 30.29 in 10.0 mi North 5.8 mph - N/A   Clear
3:53 AM 37.9 °F 33.5 °F 30.9 °F 76% 30.29 in 10.0 mi North 5.8 mph - N/A   Clear
4:53 AM 39.0 °F 33.4 °F 28.0 °F 65% 30.28 in 10.0 mi North 8.1 mph - N/A   Clear
5:53 AM 39.0 °F 34.0 °F 28.0 °F 65% 30.29 in 10.0 mi North 6.9 mph - N/A   Clear
6:53 AM 37.9 °F 35.5 °F 28.9 °F 70% 30.30 in 10.0 mi NNE 3.5 mph - N/A   Clear
7:53 AM 42.1 °F - 30.9 °F 65% 30.30 in 10.0 mi Calm Calm - N/A   Clear
8:53 AM 46.9 °F - 33.1 °F 59% 30.31 in 10.0 mi NNE 6.9 mph - N/A   Clear
9:53 AM 52.0 °F - 28.0 °F 40% 30.33 in 10.0 mi NNE 9.2 mph - N/A   Clear
10:53 AM 55.0 °F - 27.0 °F 34% 30.32 in 10.0 mi North 8.1 mph - N/A   Clear
11:53 AM 59.0 °F - 27.0 °F 29% 30.30 in 10.0 mi North 8.1 mph - N/A   Clear
12:53 PM 62.1 °F - 30.0 °F 30% 30.25 in 10.0 mi NNE 11.5 mph - N/A   Clear
1:53 PM 64.0 °F - 28.0 °F 26% 30.23 in 10.0 mi North 11.5 mph - N/A   Clear
2:53 PM 63.0 °F - 30.0 °F 29% 30.22 in 10.0 mi ENE 10.4 mph - N/A   Clear
3:53 PM 62.1 °F - 36.0 °F 38% 30.22 in 10.0 mi NE 6.9 mph - N/A   Clear
4:53 PM 59.0 °F - 39.0 °F 48% 30.23 in 10.0 mi NNE 5.8 mph - N/A   Clear
5:53 PM 55.9 °F - 42.1 °F 60% 30.22 in 10.0 mi Calm Calm - N/A   Clear
6:53 PM 52.0 °F - 44.1 °F 74% 30.24 in 10.0 mi Calm Calm - N/A   Clear
7:53 PM 50.0 °F - 45.0 °F 83% 30.26 in 10.0 mi Calm Calm - N/A   Clear
8:53 PM 50.0 °F - 43.0 °F 77% 30.26 in 10.0 mi Calm Calm - N/A   Clear
9:53 PM 50.0 °F - 42.1 °F 74% 30.25 in 10.0 mi NNE 4.6 mph - N/A   Clear
10:53 PM 50.0 °F - 39.9 °F 68% 30.27 in 10.0 mi North 6.9 mph - N/A   Clear
11:53 PM 50.0 °F - 39.9 °F 68% 30.26 in 10.0 mi North 6.9 mph - N/A   Clear